Grand Union Canal Spring Half Marathon
Skip Navigation Links
Results
Team Results
Leaderboard
Purple Patch Results
Race Stats
Smartphone Results
09 April 2017
HyperLink
Click you name for detailed results
Page 1 of 6 (279 items)
[1]23456
Pos
Bib No
Fav
Share
Print
Name
Gun Time
Chip Time
Category
Cat Pos
Gender
Gen Pos
Club
Pace
1159James REPPER1:18:56.31:18:55.3Top 31Male1CHILTERN HARRIERS10.0 m/hr
2155Matthew WOODMAN1:20:37.81:20:37.8Top 32Male2STAFFORD HARRIERS 9.7 m/hr
3106Declan MULLINS1:22:52.11:22:52.1Top 33Male3  9.5 m/hr
438Adam ELDERFIELD1:23:29.91:23:28.8Sen1Male4HILLINGDON AC 9.4 m/hr
529David CONWAY1:25:25.91:25:23.4V401Male5BBC RUNNING CLUB 9.2 m/hr
68Grant BEERLING1:25:27.11:25:25.9V501Male6CAMBRIDGE HARRIERS 9.2 m/hr
75Owen BARDER1:25:57.61:25:56.0V502Male7SERPENTINE RC 9.1 m/hr
872Alan HUTCHINSON1:26:43.51:26:43.5Sen2Male8  9.1 m/hr
926Jamie CLEARY1:28:09.11:28:09.1V402Male9  8.9 m/hr
1067Graham HILL1:30:21.61:30:20.2V403Male10ROYSTON RUNNERS 8.7 m/hr
11141James SPENCER1:30:29.21:30:26.5Sen3Male11  8.7 m/hr
12112Robin NORTON-HALE1:35:31.71:35:27.3Top 31Female1VICTORIA PARK & TOWER HAMLETS AC 8.2 m/hr
1386Ray LOGUE1:36:18.71:36:13.3Sen4Male12  8.2 m/hr
1494Mark MCLEOD1:36:27.61:36:25.9Sen5Male13OUAC 8.1 m/hr
15145Matthew TAYLOR1:36:33.31:36:29.2V404Male14  8.1 m/hr
1670David HOOK1:37:40.11:37:38.0V503Male15  8.0 m/hr
17101Dan MORAN1:37:57.61:37:54.6Sen6Male16  8.0 m/hr
18110Mark NICHOLLS1:38:29.51:38:22.1V405Male17WATFORD JOGGERS 8.0 m/hr
1989Henry MAYNARD1:39:33.81:39:30.0Sen7Male18IMPERIAL COLLEGE CROSS COUNTRY & AC 7.9 m/hr
20115Daniel PALMER1:39:48.01:39:41.9Sen8Male19  7.9 m/hr
21127Andy ROBY1:41:49.91:41:46.3V504Male20ST MARY'S RUNNERS 7.7 m/hr
2263Augustin HENNECKER1:42:11.91:42:10.5Sen9Male21  7.7 m/hr
2335James DARK1:42:50.91:42:39.9V406Male22LONDON HEATHSIDE AC 7.6 m/hr
24139Neal SMITH1:43:03.41:42:57.4V505Male23  7.6 m/hr
251Neil ABSOLOM1:43:28.61:43:26.8V407Male24PURPLE PATCH RUNNERS 7.6 m/hr
2644Jack FITZGERALD1:43:31.81:43:30.0Sen10Male25  7.6 m/hr
2769Joe HOLLAND1:43:52.91:43:47.0Sen11Male26  7.6 m/hr
2860Matthew HASKER1:44:30.91:44:29.8Sen12Male27  7.5 m/hr
29117Nicola PAYNE1:44:36.61:44:32.5Top 32Female2  7.5 m/hr
30196Thomas BURT1:44:42.81:44:38.9Sen13Male28  7.5 m/hr
3133Daniel DALQUEN1:44:52.21:44:48.4Sen14Male29  7.5 m/hr
32119Grethe PETERSEN1:44:56.61:44:53.5Top 33Female3SERPENTINE RC 7.5 m/hr
33146Chris THOMPSTONE1:45:29.01:45:24.0Sen15Male30  7.5 m/hr
3474Danny JOHNS1:45:34.51:45:31.6V408Male31BRACKNELL FOREST RUNNERS 7.4 m/hr
35103Daniel MORRIS1:45:45.31:45:42.0V409Male32  7.4 m/hr
3622Rebecca CARTWRIGHT1:45:52.31:45:45.0Sen1Female4THAMES VALLEY TRIATHLETES 7.4 m/hr
3731Eddie CUSICK1:46:13.71:46:11.4V506Male33  7.4 m/hr
3856Rob GROSSE1:46:40.81:46:36.1Sen16Male34  7.4 m/hr
39178Stefan BARDEN1:46:50.31:46:47.5V507Male35  7.4 m/hr
4064Bernard HENNECKER1:48:44.11:48:41.7V508Male36  7.2 m/hr
4159Sam HARRIS1:49:13.11:49:11.6Sen17Male37PURPLE PATCH RUNNERS 7.2 m/hr
4212Richard BLAXILL1:49:16.81:49:08.1V509Male38DACORUM & TRING 7.2 m/hr
43104Lauren MORRIS1:49:23.71:49:22.0Sen2Female5THAMES VALLEY HARRIERS 7.2 m/hr
443Gregory BAILEY1:49:56.41:49:53.3V5010Male39WAKEFIELD & DISTRICT HARRIERS & AC 7.1 m/hr
4551Lora GIGUERE1:50:10.01:50:05.4Sen3Female6  7.1 m/hr
4661Stuart HATCHER1:50:23.51:50:18.0V4010Male40  7.1 m/hr
4732Rune DAHL1:50:39.01:50:26.4Sen18Male41  7.1 m/hr
48124Helen ROBERTSON1:50:49.71:50:44.8Sen4Female7  7.1 m/hr
4950Bruce GIGUERE1:50:59.81:50:54.7V4011Male42  7.1 m/hr
504Scott BALCOMB1:51:40.81:51:33.8V5011Male43  7.0 m/hr
Page 1 of 6 (279 items)
[1]23456
fb